Location: Poughquag
(41.6090°N, 73.6820°W)
Time: 23:06:02
(UTC-04:00)

X-37B - Pass Details

Date: 18 June 2023
Orbit: 277 x 277 km, 45.0° (Epoch: 01 November)

Event Time Altitude Azimuth Distance (km) Brightness Sun altitude
Exits shadow 02:47:17 31° 21° (NNE) 519 1.9 -20.1°
Drops below altitude 10° 02:49:11 10° 67° (ENE) 1,102 3.6 -19.9°
Sets 02:51:12 0° 77° (ENE) 1,914 4.7 -19.7°
